Time,TemperatureF,DewpointF,PressureIn,WindDirection,WindDirectionDegrees,WindSpeedMPH,WindSpeedGustMPH,Humidity,HourlyPrecipIn,Conditions,Clouds,dailyrainin,SolarRadiationWatts/m^2,SoftwareType,DateUTC
2013-02-05 00:03:00,38.0,23.0,30.24,SSW,197,6.0,11.0,54,0.00,,,0.00,0.000000,,2013-02-05 05:03:00,
2013-02-05 00:12:00,38.0,23.0,30.24,SSW,197,6.0,11.0,54,0.00,,,0.00,0.000000,,2013-02-05 05:12:00,
2013-02-05 00:42:00,40.0,24.0,30.22,SSW,202,6.0,14.0,53,0.00,,,0.00,0.000000,,2013-02-05 05:42:00,
2013-02-05 00:52:00,40.0,24.0,30.22,SSW,202,6.0,14.0,53,0.00,,,0.00,0.000000,,2013-02-05 05:52:00,
2013-02-05 01:02:00,40.0,24.0,30.22,SSW,202,6.0,14.0,53,0.00,,,0.00,0.000000,,2013-02-05 06:02:00,
2013-02-05 01:11:00,40.0,24.0,30.22,SSW,202,6.0,14.0,53,0.00,,,0.00,0.000000,,2013-02-05 06:11:00,
2013-02-05 01:32:00,40.0,26.0,30.19,SSW,204,4.0,9.0,56,0.00,,,0.00,0.000000,,2013-02-05 06:32:00,
2013-02-05 01:42:00,40.0,26.0,30.19,SSW,204,4.0,9.0,56,0.00,,,0.00,0.000000,,2013-02-05 06:42:00,
2013-02-05 01:52:00,40.0,26.0,30.19,SSW,204,4.0,9.0,56,0.00,,,0.00,0.000000,,2013-02-05 06:52:00,
2013-02-05 02:01:00,40.0,26.0,30.19,SSW,204,4.0,9.0,56,0.00,,,0.00,0.000000,,2013-02-05 07:01:00,
2013-02-05 02:11:00,40.0,26.0,30.19,SSW,204,4.0,9.0,56,0.00,,,0.00,0.000000,,2013-02-05 07:11:00,
2013-02-05 02:32:00,41.0,24.0,30.18,SW,230,6.0,14.0,51,0.00,,,0.00,0.000000,,2013-02-05 07:32:00,
2013-02-05 02:42:00,41.0,24.0,30.18,SW,230,6.0,14.0,51,0.00,,,0.00,0.000000,,2013-02-05 07:42:00,
2013-02-05 02:52:00,41.0,24.0,30.18,SW,230,6.0,14.0,51,0.00,,,0.00,0.000000,,2013-02-05 07:52:00,
2013-02-05 03:01:00,41.0,24.0,30.18,SW,230,6.0,14.0,51,0.00,,,0.00,0.000000,,2013-02-05 08:01:00,
2013-02-05 03:11:00,41.0,24.0,30.18,SW,230,6.0,14.0,51,0.00,,,0.00,0.000000,,2013-02-05 08:11:00,
2013-02-05 03:42:00,39.0,25.0,30.17,SW,220,5.0,9.0,57,0.00,,,0.00,0.000000,,2013-02-05 08:42:00,
2013-02-05 03:52:00,39.0,25.0,30.17,SW,220,5.0,9.0,57,0.00,,,0.00,0.000000,,2013-02-05 08:52:00,
2013-02-05 04:02:00,39.0,25.0,30.17,SW,220,5.0,9.0,57,0.00,,,0.00,0.000000,,2013-02-05 09:02:00,
2013-02-05 04:11:00,39.0,25.0,30.17,SW,220,5.0,9.0,57,0.00,,,0.00,0.000000,,2013-02-05 09:11:00,
2013-02-05 04:42:00,39.0,25.0,30.15,SSW,193,4.0,9.0,58,0.00,,,0.00,0.000000,,2013-02-05 09:42:00,
2013-02-05 04:52:00,39.0,25.0,30.15,SSW,193,4.0,9.0,58,0.00,,,0.00,0.000000,,2013-02-05 09:52:00,
2013-02-05 05:02:00,39.0,25.0,30.15,SSW,193,4.0,9.0,58,0.00,,,0.00,0.000000,,2013-02-05 10:02:00,
2013-02-05 05:11:00,39.0,25.0,30.15,SSW,193,4.0,9.0,58,0.00,,,0.00,0.000000,,2013-02-05 10:11:00,
2013-02-05 05:32:00,37.0,25.0,30.17,SSW,213,5.0,9.0,62,0.00,,,0.00,0.000000,,2013-02-05 10:32:00,
2013-02-05 05:42:00,37.0,25.0,30.17,SSW,213,5.0,9.0,62,0.00,,,0.00,0.000000,,2013-02-05 10:42:00,
2013-02-05 05:52:00,37.0,25.0,30.17,SSW,213,5.0,9.0,62,0.00,,,0.00,0.000000,,2013-02-05 10:52:00,
2013-02-05 06:01:00,37.0,25.0,30.17,SSW,213,5.0,9.0,62,0.00,,,0.00,0.000000,,2013-02-05 11:01:00,
2013-02-05 06:11:00,37.0,25.0,30.17,SSW,213,5.0,9.0,62,0.00,,,0.00,0.000000,,2013-02-05 11:11:00,
2013-02-05 06:32:00,36.0,28.0,30.18,SSW,193,4.0,7.0,73,0.00,,,0.00,0.000000,,2013-02-05 11:32:00,
2013-02-05 06:42:00,36.0,28.0,30.18,SSW,193,4.0,7.0,73,0.00,,,0.00,0.000000,,2013-02-05 11:42:00,
2013-02-05 06:52:00,36.0,28.0,30.18,SSW,193,4.0,7.0,73,0.00,,,0.00,0.000000,,2013-02-05 11:52:00,
2013-02-05 07:02:00,36.0,28.0,30.18,SSW,193,4.0,7.0,73,0.00,,,0.00,0.000000,,2013-02-05 12:02:00,
2013-02-05 07:12:00,36.0,28.0,30.18,SSW,193,4.0,7.0,73,0.00,,,0.00,0.000000,,2013-02-05 12:12:00,
2013-02-05 07:32:00,37.0,29.0,30.18,SW,230,1.0,6.0,74,0.00,,,0.00,0.000000,,2013-02-05 12:32:00,
2013-02-05 07:42:00,37.0,29.0,30.18,SW,230,1.0,6.0,74,0.00,,,0.00,0.000000,,2013-02-05 12:42:00,
2013-02-05 07:52:00,37.0,29.0,30.18,SW,230,1.0,6.0,74,0.00,,,0.00,0.000000,,2013-02-05 12:52:00,
2013-02-05 08:02:00,37.0,29.0,30.18,SW,230,1.0,6.0,74,0.00,,,0.00,0.000000,,2013-02-05 13:02:00,
2013-02-05 08:12:00,37.0,29.0,30.18,SW,230,1.0,6.0,74,0.00,,,0.00,0.000000,,2013-02-05 13:12:00,
2013-02-05 08:42:00,39.0,30.0,30.19,WSW,248,6.0,10.0,69,0.00,,,0.00,11.000000,,2013-02-05 13:42:00,
2013-02-05 08:52:00,39.0,30.0,30.19,WSW,248,6.0,10.0,69,0.00,,,0.00,11.000000,,2013-02-05 13:52:00,
2013-02-05 09:01:00,39.0,30.0,30.19,WSW,248,6.0,10.0,69,0.00,,,0.00,11.000000,,2013-02-05 14:01:00,
2013-02-05 09:12:00,39.0,30.0,30.19,WSW,248,6.0,10.0,69,0.00,,,0.00,11.000000,,2013-02-05 14:12:00,
2013-02-05 09:42:00,41.0,27.0,30.21,SW,223,6.0,11.0,58,0.00,,,0.00,77.000000,,2013-02-05 14:42:00,
2013-02-05 09:52:00,41.0,27.0,30.21,SW,223,6.0,11.0,58,0.00,,,0.00,77.000000,,2013-02-05 14:52:00,
2013-02-05 10:02:00,41.0,27.0,30.21,SW,223,6.0,11.0,58,0.00,,,0.00,77.000000,,2013-02-05 15:02:00,
2013-02-05 10:11:00,41.0,27.0,30.21,SW,223,6.0,11.0,58,0.00,,,0.00,77.000000,,2013-02-05 15:11:00,
2013-02-05 10:32:00,44.0,28.0,30.21,SSW,203,5.0,10.0,53,0.00,,,0.00,110.000000,,2013-02-05 15:32:00,
2013-02-05 10:42:00,44.0,28.0,30.21,SSW,203,5.0,10.0,53,0.00,,,0.00,110.000000,,2013-02-05 15:42:00,
2013-02-05 10:52:00,44.0,28.0,30.21,SSW,203,5.0,10.0,53,0.00,,,0.00,110.000000,,2013-02-05 15:52:00,
2013-02-05 11:01:00,44.0,28.0,30.21,SSW,203,5.0,10.0,53,0.00,,,0.00,110.000000,,2013-02-05 16:01:00,
2013-02-05 11:12:00,44.0,28.0,30.21,SSW,203,5.0,10.0,53,0.00,,,0.00,110.000000,,2013-02-05 16:12:00,
2013-02-05 11:33:00,49.0,31.0,30.21,SW,227,4.0,11.0,49,0.00,,,-99.99,177.000000,,2013-02-05 16:33:00,
2013-02-05 11:42:00,49.0,31.0,30.21,SW,227,4.0,11.0,49,0.00,,,-99.99,177.000000,,2013-02-05 16:42:00,
2013-02-05 11:52:00,49.0,31.0,30.21,SW,227,4.0,11.0,49,0.00,,,-99.99,177.000000,,2013-02-05 16:52:00,
2013-02-05 12:01:00,49.0,31.0,30.21,SW,227,4.0,11.0,49,0.00,,,-99.99,177.000000,,2013-02-05 17:01:00,
2013-02-05 12:12:00,49.0,31.0,30.21,SW,227,4.0,11.0,49,0.00,,,-99.99,177.000000,,2013-02-05 17:12:00,
2013-02-05 12:33:00,54.0,29.0,30.19,SSW,198,5.0,11.0,38,0.00,,,0.00,421.000000,,2013-02-05 17:33:00,
2013-02-05 12:42:00,54.0,29.0,30.19,SSW,198,5.0,11.0,38,0.00,,,0.00,421.000000,,2013-02-05 17:42:00,
2013-02-05 12:52:00,54.0,29.0,30.19,SSW,198,5.0,11.0,38,0.00,,,0.00,421.000000,,2013-02-05 17:52:00,
2013-02-05 13:02:00,54.0,29.0,30.19,SSW,198,5.0,11.0,38,0.00,,,0.00,421.000000,,2013-02-05 18:02:00,
2013-02-05 13:11:00,54.0,29.0,30.19,SSW,198,5.0,11.0,38,0.00,,,0.00,421.000000,,2013-02-05 18:11:00,
2013-02-05 13:32:00,59.0,28.0,30.16,NE,50,4.0,11.0,31,0.00,,,0.00,675.000000,,2013-02-05 18:32:00,
2013-02-05 13:42:00,59.0,28.0,30.16,NE,50,4.0,11.0,31,0.00,,,0.00,675.000000,,2013-02-05 18:42:00,
2013-02-05 13:52:00,59.0,28.0,30.16,NE,50,4.0,11.0,31,0.00,,,0.00,675.000000,,2013-02-05 18:52:00,
2013-02-05 14:02:00,59.0,28.0,30.16,NE,50,4.0,11.0,31,0.00,,,0.00,675.000000,,2013-02-05 19:02:00,
2013-02-05 14:11:00,59.0,28.0,30.16,NE,50,4.0,11.0,31,0.00,,,0.00,675.000000,,2013-02-05 19:11:00,
2013-02-05 14:42:00,64.0,31.0,30.13,WSW,238,7.0,15.0,29,0.00,,,0.00,603.000000,,2013-02-05 19:42:00,
2013-02-05 14:52:00,64.0,31.0,30.13,WSW,238,7.0,15.0,29,0.00,,,0.00,603.000000,,2013-02-05 19:52:00,
2013-02-05 15:32:00,65.0,32.0,30.13,West,274,6.0,17.0,29,-99.99,,,0.00,590.000000,,2013-02-05 20:32:00,
2013-02-05 16:02:00,65.0,32.0,30.13,West,274,6.0,17.0,29,-99.99,,,0.00,590.000000,,2013-02-05 21:02:00,
2013-02-05 16:11:00,65.0,32.0,30.13,West,274,6.0,17.0,29,-99.99,,,0.00,590.000000,,2013-02-05 21:11:00,
2013-02-05 16:42:00,65.0,32.0,30.14,SW,230,8.0,18.0,29,0.00,,,0.00,415.000000,,2013-02-05 21:42:00,
2013-02-05 16:52:00,65.0,32.0,30.14,SW,230,8.0,18.0,29,0.00,,,0.00,415.000000,,2013-02-05 21:52:00,
2013-02-05 17:02:00,65.0,32.0,30.14,SW,230,8.0,18.0,29,0.00,,,0.00,415.000000,,2013-02-05 22:02:00,
2013-02-05 17:11:00,65.0,32.0,30.14,SW,230,8.0,18.0,29,0.00,,,0.00,415.000000,,2013-02-05 22:11:00,
2013-02-05 17:42:00,59.0,31.0,30.13,SSE,156,5.0,16.0,34,0.00,,,0.00,251.000000,,2013-02-05 22:42:00,
2013-02-05 17:52:00,59.0,31.0,30.13,SSE,156,5.0,16.0,34,0.00,,,0.00,251.000000,,2013-02-05 22:52:00,
2013-02-05 18:02:00,59.0,31.0,30.13,SSE,156,5.0,16.0,34,0.00,,,0.00,251.000000,,2013-02-05 23:02:00,
2013-02-05 18:11:00,59.0,31.0,30.13,SSE,156,5.0,16.0,34,0.00,,,0.00,251.000000,,2013-02-05 23:11:00,
2013-02-05 18:33:00,55.0,32.0,30.15,NNW,341,7.0,14.0,42,0.00,,,0.00,34.000000,,2013-02-05 23:33:00,
2013-02-05 18:42:00,55.0,32.0,30.15,NNW,341,7.0,14.0,42,0.00,,,0.00,34.000000,,2013-02-05 23:42:00,
2013-02-05 18:53:00,55.0,32.0,30.15,NNW,341,7.0,14.0,42,0.00,,,0.00,34.000000,,2013-02-05 23:53:00,
2013-02-05 19:02:00,55.0,32.0,30.15,NNW,341,7.0,14.0,42,0.00,,,0.00,34.000000,,2013-02-06 00:02:00,
2013-02-05 19:12:00,55.0,32.0,30.15,NNW,341,7.0,14.0,42,0.00,,,0.00,34.000000,,2013-02-06 00:12:00,
2013-02-05 19:32:00,51.0,31.0,30.17,NNW,348,4.0,13.0,47,0.00,,,0.00,0.000000,,2013-02-06 00:32:00,
2013-02-05 19:42:00,51.0,31.0,30.17,NNW,348,4.0,13.0,47,0.00,,,0.00,0.000000,,2013-02-06 00:42:00,
2013-02-05 19:52:00,51.0,31.0,30.17,NNW,348,4.0,13.0,47,0.00,,,0.00,0.000000,,2013-02-06 00:52:00,
2013-02-05 20:02:00,51.0,31.0,30.17,NNW,348,4.0,13.0,47,0.00,,,0.00,0.000000,,2013-02-06 01:02:00,
2013-02-05 20:12:00,51.0,31.0,30.17,NNW,348,4.0,13.0,47,0.00,,,0.00,0.000000,,2013-02-06 01:12:00,
2013-02-05 20:33:00,47.0,31.0,30.19,North,355,4.0,8.0,53,0.00,,,0.00,0.000000,,2013-02-06 01:33:00,
2013-02-05 20:42:00,47.0,31.0,30.19,North,355,4.0,8.0,53,0.00,,,0.00,0.000000,,2013-02-06 01:42:00,
2013-02-05 20:53:00,47.0,31.0,30.19,North,355,4.0,8.0,53,0.00,,,0.00,0.000000,,2013-02-06 01:53:00,
2013-02-05 21:02:00,47.0,31.0,30.19,North,355,4.0,8.0,53,0.00,,,0.00,0.000000,,2013-02-06 02:02:00,
2013-02-05 21:12:00,47.0,31.0,30.19,North,355,4.0,8.0,53,0.00,,,0.00,0.000000,,2013-02-06 02:12:00,
2013-02-05 21:42:00,41.0,32.0,30.20,NNE,25,3.0,6.0,69,0.00,,,0.00,0.000000,,2013-02-06 02:42:00,
2013-02-05 21:53:00,41.0,32.0,30.20,NNE,25,3.0,6.0,69,0.00,,,0.00,0.000000,,2013-02-06 02:53:00,
2013-02-05 22:03:00,41.0,32.0,30.20,NNE,25,3.0,6.0,69,0.00,,,0.00,0.000000,,2013-02-06 03:03:00,
2013-02-05 22:12:00,41.0,32.0,30.20,NNE,25,3.0,6.0,69,0.00,,,0.00,0.000000,,2013-02-06 03:12:00,
2013-02-05 22:33:00,37.0,30.0,30.21,South,182,3.0,5.0,76,0.00,,,0.00,0.000000,,2013-02-06 03:33:00,
2013-02-05 22:43:00,37.0,30.0,30.21,South,182,3.0,5.0,76,0.00,,,0.00,0.000000,,2013-02-06 03:43:00,
2013-02-05 22:53:00,37.0,30.0,30.21,South,182,3.0,5.0,76,0.00,,,0.00,0.000000,,2013-02-06 03:53:00,
2013-02-05 23:02:00,37.0,30.0,30.21,South,182,3.0,5.0,76,0.00,,,0.00,0.000000,,2013-02-06 04:02:00,
2013-02-05 23:11:00,37.0,30.0,30.21,South,182,3.0,5.0,76,0.00,,,0.00,0.000000,,2013-02-06 04:11:00,
2013-02-05 23:42:00,34.0,31.0,30.20,South,185,4.0,8.0,88,0.00,,,0.00,0.000000,,2013-02-06 04:42:00,
2013-02-05 23:52:00,34.0,31.0,30.20,South,185,4.0,8.0,88,0.00,,,0.00,0.000000,,2013-02-06 04:52:00,